When you browse on this site, cookies collect data to enhance your experience and personalize the content and advertising you see.
Visit our Privacy Policy to learn more. By continuing to use the site, you agree to this use of cookies and data.
  • In Österreich
  • Länderverzeichnis
  • Für 7 Tage
  • Wassertemperatur
  • Satellitenkarten
  • Wetterkarte
  • News
  • Widgets
  • user-avatar
    Anmelden

    Stündliche Wetter Rohizno

    Heute, 25 April, Donnerstag

    Zeit Temperatur Niederschläge Wind Luftdruck Luftfeuchtigkeit
    00:00 +8°C° 0 mm 4 m/S 743 mmHg 77%
    01:00 +7°C° 0 mm 4 m/S 743 mmHg 79%
    02:00 +8°C° 0 mm 3 m/S 743 mmHg 82%
    03:00 +8°C° 0 mm 3 m/S 743 mmHg 82%
    04:00 +8°C° 0 mm 3 m/S 743 mmHg 83%
    05:00 +8°C° 0 mm 3 m/S 743 mmHg 84%
    06:00 +9°C° 0 mm 3 m/S 743 mmHg 80%
    07:00 +11°C° 0 mm 4 m/S 743 mmHg 77%
    08:00 +12°C° 0 mm 4 m/S 743 mmHg 73%
    09:00 +14°C° 0 mm 4 m/S 743 mmHg 69%
    10:00 +17°C° 0 mm 4 m/S 743 mmHg 65%
    11:00 +20°C° 0 mm 4 m/S 743 mmHg 60%
    12:00 +21°C° 0 mm 4 m/S 743 mmHg 58%
    13:00 +22°C° 0 mm 4 m/S 743 mmHg 56%
    14:00 +23°C° 0 mm 4 m/S 743 mmHg 53%
    15:00 +22°C° 0.2 mm 4 m/S 742 mmHg 55%
    16:00 +22°C° 0.2 mm 4 m/S 742 mmHg 57%
    17:00 +22°C° 0.2 mm 4 m/S 742 mmHg 59%
    18:00 +20°C° 0.2 mm 4 m/S 742 mmHg 67%
    19:00 +18°C° 0.2 mm 3 m/S 742 mmHg 75%
    20:00 +16°C° 0.2 mm 3 m/S 741 mmHg 84%
    21:00 +14°C° 0 mm 3 m/S 741 mmHg 86%
    22:00 +14°C° 0 mm 2 m/S 741 mmHg 88%
    23:00 +13°C° 0 mm 2 m/S 742 mmHg 91%

    Morgen, 26 April, Freitag

    Zeit Temperatur Niederschläge Wind Luftdruck Luftfeuchtigkeit
    00:00 +13°C° 0 mm 2 m/S 741 mmHg 90%
    01:00 +13°C° 0 mm 2 m/S 741 mmHg 90%
    02:00 +13°C° 0 mm 2 m/S 741 mmHg 90%
    03:00 +13°C° 0.1 mm 2 m/S 741 mmHg 90%
    04:00 +13°C° 0.1 mm 2 m/S 741 mmHg 90%
    05:00 +12°C° 0.1 mm 2 m/S 741 mmHg 90%
    06:00 +13°C° 0 mm 3 m/S 741 mmHg 85%
    07:00 +16°C° 0 mm 3 m/S 741 mmHg 80%
    08:00 +17°C° 0 mm 3 m/S 741 mmHg 76%
    09:00 +19°C° 0.3 mm 4 m/S 741 mmHg 69%
    10:00 +21°C° 0.3 mm 4 m/S 740 mmHg 63%
    11:00 +23°C° 0.3 mm 4 m/S 740 mmHg 56%
    12:00 +25°C° 0 mm 4 m/S 740 mmHg 52%
    13:00 +26°C° 0 mm 4 m/S 740 mmHg 48%
    14:00 +27°C° 0 mm 4 m/S 739 mmHg 44%
    15:00 +27°C° 0 mm 4 m/S 739 mmHg 48%
    16:00 +26°C° 0 mm 4 m/S 738 mmHg 51%
    17:00 +26°C° 0 mm 3 m/S 738 mmHg 55%
    18:00 +24°C° 0 mm 3 m/S 738 mmHg 61%
    19:00 +21°C° 0 mm 3 m/S 738 mmHg 66%
    20:00 +18°C° 0 mm 3 m/S 738 mmHg 72%
    21:00 +18°C° 0.1 mm 3 m/S 738 mmHg 75%
    22:00 +17°C° 0.1 mm 3 m/S 738 mmHg 78%
    23:00 +16°C° 0.1 mm 2 m/S 738 mmHg 80%

    übermorgen, 27 April, Samstag

    Zeit Temperatur Niederschläge Wind Luftdruck Luftfeuchtigkeit
    00:00 +16°C° 0 mm 2 m/S 737 mmHg 81%
    01:00 +16°C° 0 mm 2 m/S 737 mmHg 81%
    02:00 +15°C° 0 mm 2 m/S 737 mmHg 81%
    03:00 +16°C° 0 mm 2 m/S 737 mmHg 79%
    04:00 +16°C° 0 mm 2 m/S 737 mmHg 77%
    05:00 +16°C° 0 mm 2 m/S 737 mmHg 75%
    06:00 +17°C° 0 mm 2 m/S 737 mmHg 74%
    07:00 +19°C° 0 mm 1 m/S 737 mmHg 73%
    08:00 +20°C° 0 mm 1 m/S 737 mmHg 72%
    09:00 +21°C° 0 mm 1 m/S 737 mmHg 67%
    10:00 +23°C° 0 mm 1 m/S 737 mmHg 61%
    11:00 +25°C° 0 mm 1 m/S 737 mmHg 56%
    12:00 +24°C° 2.1 mm 1 m/S 736 mmHg 59%
    13:00 +23°C° 2.1 mm 2 m/S 736 mmHg 63%
    14:00 +23°C° 2.1 mm 2 m/S 736 mmHg 67%
    15:00 +21°C° 1.7 mm 3 m/S 735 mmHg 72%
    16:00 +20°C° 1.7 mm 3 m/S 735 mmHg 78%
    17:00 +18°C° 1.7 mm 3 m/S 735 mmHg 84%
    18:00 +18°C° 0.4 mm 3 m/S 735 mmHg 86%
    19:00 +17°C° 0.4 mm 3 m/S 735 mmHg 89%
    20:00 +16°C° 0.4 mm 3 m/S 735 mmHg 91%
    21:00 +16°C° 0.7 mm 3 m/S 735 mmHg 93%
    22:00 +14°C° 0.7 mm 3 m/S 735 mmHg 94%
    23:00 +14°C° 0.7 mm 3 m/S 735 mmHg 95%

    28 April, Sonntag

    Zeit Temperatur Niederschläge Wind Luftdruck Luftfeuchtigkeit
    00:00 +13°C° 0.1 mm 4 m/S 735 mmHg 94%
    01:00 +12°C° 0.1 mm 4 m/S 735 mmHg 94%
    02:00 +10°C° 0.1 mm 5 m/S 735 mmHg 94%
    03:00 +10°C° 0.3 mm 5 m/S 735 mmHg 93%
    04:00 +10°C° 0.3 mm 5 m/S 735 mmHg 93%
    05:00 +10°C° 0.3 mm 5 m/S 735 mmHg 93%
    06:00 +10°C° 0.2 mm 5 m/S 735 mmHg 92%
    07:00 +10°C° 0.2 mm 6 m/S 735 mmHg 91%
    08:00 +10°C° 0.2 mm 6 m/S 735 mmHg 91%
    09:00 +10°C° 0.2 mm 6 m/S 735 mmHg 90%
    10:00 +10°C° 0.2 mm 6 m/S 735 mmHg 89%
    11:00 +10°C° 0.2 mm 7 m/S 736 mmHg 88%
    12:00 +10°C° 0.4 mm 7 m/S 736 mmHg 88%
    13:00 +9°C° 0.4 mm 6 m/S 736 mmHg 89%
    14:00 +8°C° 0.4 mm 6 m/S 736 mmHg 89%
    15:00 +8°C° 0.3 mm 6 m/S 736 mmHg 89%
    16:00 +8°C° 0.3 mm 6 m/S 736 mmHg 89%
    17:00 +8°C° 0.3 mm 7 m/S 736 mmHg 89%
    18:00 +8°C° 0.2 mm 6 m/S 736 mmHg 90%
    19:00 +8°C° 0.2 mm 6 m/S 736 mmHg 91%
    20:00 +8°C° 0.2 mm 5 m/S 736 mmHg 91%
    21:00 +7°C° 1.8 mm 5 m/S 736 mmHg 92%
    22:00 +7°C° 1.8 mm 5 m/S 736 mmHg 93%
    23:00 +7°C° 1.8 mm 5 m/S 736 mmHg 94%

    29 April, Montag

    Zeit Temperatur Niederschläge Wind Luftdruck Luftfeuchtigkeit
    00:00 +7°C° 2.3 mm 5 m/S 736 mmHg 94%
    01:00 +7°C° 2.3 mm 5 m/S 736 mmHg 94%
    02:00 +7°C° 2.3 mm 5 m/S 736 mmHg 94%
    03:00 +7°C° 0.2 mm 5 m/S 735 mmHg 94%
    04:00 +7°C° 0.2 mm 4 m/S 735 mmHg 94%
    05:00 +7°C° 0.2 mm 4 m/S 735 mmHg 94%
    06:00 +8°C° 0.1 mm 4 m/S 735 mmHg 93%
    07:00 +9°C° 0.1 mm 3 m/S 735 mmHg 93%
    08:00 +9°C° 0.1 mm 3 m/S 735 mmHg 93%
    09:00 +9°C° 0.2 mm 3 m/S 735 mmHg 93%
    10:00 +9°C° 0.2 mm 3 m/S 735 mmHg 93%
    11:00 +10°C° 0.2 mm 3 m/S 735 mmHg 92%
    12:00 +10°C° 0.1 mm 3 m/S 735 mmHg 92%
    13:00 +10°C° 0.1 mm 3 m/S 735 mmHg 91%
    14:00 +11°C° 0.1 mm 3 m/S 735 mmHg 90%
    15:00 +11°C° 0.2 mm 3 m/S 735 mmHg 90%
    16:00 +11°C° 0.2 mm 3 m/S 735 mmHg 91%
    17:00 +12°C° 0.2 mm 2 m/S 735 mmHg 92%
    18:00 +12°C° 0.1 mm 2 m/S 735 mmHg 93%
    19:00 +10°C° 0.1 mm 2 m/S 735 mmHg 95%
    20:00 +10°C° 0.1 mm 2 m/S 735 mmHg 96%
    21:00 +10°C° 0.3 mm 2 m/S 735 mmHg 97%
    22:00 +10°C° 0.3 mm 2 m/S 735 mmHg 97%
    23:00 +10°C° 0.3 mm 2 m/S 735 mmHg 97%

    30 April, Dienstag

    Zeit Temperatur Niederschläge Wind Luftdruck Luftfeuchtigkeit
    00:00 +10°C° 0.2 mm 2 m/S 735 mmHg 97%
    01:00 +9°C° 0.2 mm 2 m/S 735 mmHg 97%
    02:00 +9°C° 0.2 mm 2 m/S 735 mmHg 97%
    03:00 +9°C° 0.2 mm 2 m/S 735 mmHg 97%
    04:00 +9°C° 0.2 mm 2 m/S 735 mmHg 97%
    05:00 +9°C° 0.2 mm 2 m/S 734 mmHg 97%
    06:00 +9°C° 0.1 mm 2 m/S 734 mmHg 96%
    07:00 +9°C° 0.1 mm 3 m/S 734 mmHg 96%
    08:00 +9°C° 0.1 mm 3 m/S 734 mmHg 95%
    09:00 +9°C° 0.3 mm 3 m/S 734 mmHg 94%
    10:00 +10°C° 0.3 mm 3 m/S 734 mmHg 93%
    11:00 +10°C° 0.3 mm 3 m/S 734 mmHg 92%
    12:00 +8°C° 1.7 mm 4 m/S 734 mmHg 92%
    13:00 +8°C° 1.7 mm 4 m/S 734 mmHg 93%
    14:00 +8°C° 1.7 mm 4 m/S 734 mmHg 94%
    15:00 +8°C° 1.1 mm 4 m/S 734 mmHg 94%
    16:00 +7°C° 1.1 mm 5 m/S 734 mmHg 94%
    17:00 +7°C° 1.1 mm 5 m/S 734 mmHg 93%
    18:00 +7°C° 0.4 mm 5 m/S 734 mmHg 93%
    19:00 +6°C° 0.4 mm 5 m/S 734 mmHg 94%
    20:00 +6°C° 0.4 mm 5 m/S 734 mmHg 94%
    21:00 +6°C° 0.8 mm 5 m/S 734 mmHg 94%
    22:00 +5°C° 0.8 mm 4 m/S 734 mmHg 94%
    23:00 +5°C° 0.8 mm 4 m/S 734 mmHg 95%
    Mehr zeigen